COSMOS 2522 (752) (42939 NORAD) Tracking and Keplerian Element Data

This shows tracking and keplerian element data for the satellite.

Feedback or suggestion? Click here.




ElementValue
Catalog42939
NameCOSMOS 2522 (752)
Epoch Orbit636
Epoch Day198.62470203
Epoch Year2018
RAAN291.3098
Inclination64.6572
Eccentricity0.0007672
Argument of Perigee236.7482
Mean Anonmoly182.0507
Mean Motion2.13101918
Decay Rate-3.7E-07
L11 42939U 17055A 18198.62470203 -.00000037 00000-0 00000-0 0 9997
L22 42939 64.6572 291.3098 0007672 236.7482 182.0507 2.13101918 6369

Live tracking and technical data element details for COSMOS 2522 (752) (NORAD 42939). COSMOS 2522 (752) can be tracked NOW for your location showing map with azimuth and elevation plus other details from your city location.

Track the satellite on the map from your city or location and see movement details for azimuth, elevation, latitude, longitude, range, height, and movement on the map or in text.







IsCatalogInMostPopularTable: catalog: 42939, numindb: 94
Update: records affected: 1



GetName: 42939 COSMOS 2522 (752)

Hit Count: updated at: Fri, 20 Jul 2018 20:21:46 GMT